FDX354 KMIA-MMUN

Flight info

Callsign FDX354
Flight time 1h 17m
Altitude 34000
Route GLADZ4 LULLS Y196 CANOA UB879 NOSAT NOSAT1B
Aircraft B77L/H-SDE1E2E3FGHIJ2J3J4J5M1RWXY/LB1D1

Departure

Time 2026-05-05 02:47
Airport Miami International Airport (KMIA)

Arrival

Time 2026-05-05 04:04
Airport Cancún International Airport (MMUN)
Time Latitude Longitude Altitude Speed Heading
2026-05-05 02:47 26.00383 -80.24804 10893 ft 321 kts 279°
2026-05-05 02:47 26.00564 -80.27331 11222 ft 335 kts 265°
2026-05-05 02:47 26.00244 -80.29942 11569 ft 351 kts 262°
2026-05-05 02:48 25.99987 -80.32669 12113 ft 361 kts 266°
2026-05-05 02:48 25.99876 -80.35496 12822 ft 367 kts 268°
2026-05-05 02:48 25.99773 -80.38322 13675 ft 369 kts 264°
2026-05-05 02:48 25.99299 -80.41122 14612 ft 371 kts 256°
2026-05-05 02:49 25.98392 -80.43798 15544 ft 375 kts 246°
2026-05-05 02:49 25.97077 -80.46277 16477 ft 379 kts 238°
2026-05-05 02:49 25.95502 -80.48639 17370 ft 383 kts 237°
2026-05-05 02:49 25.93865 -80.51033 18187 ft 387 kts 237°
2026-05-05 02:50 25.92215 -80.53417 18940 ft 393 kts 237°
2026-05-05 02:50 25.90520 -80.55848 19688 ft 398 kts 236°
2026-05-05 02:50 25.88825 -80.58266 20500 ft 401 kts 236°
2026-05-05 02:50 25.87110 -80.60705 21253 ft 405 kts 236°
2026-05-05 02:51 25.85368 -80.63175 21990 ft 408 kts 236°
2026-05-05 02:51 25.83600 -80.65679 22656 ft 413 kts 236°
2026-05-05 02:51 25.81787 -80.68243 23318 ft 418 kts 236°
2026-05-05 02:51 25.80020 -80.70803 23961 ft 421 kts 240°
2026-05-05 02:52 25.78540 -80.73601 24463 ft 424 kts 248°
2026-05-05 02:52 25.77446 -80.76671 25028 ft 425 kts 256°
2026-05-05 02:52 25.76582 -80.79822 25749 ft 427 kts 257°
2026-05-05 02:52 25.75726 -80.82997 26525 ft 429 kts 258°
2026-05-05 02:53 25.74868 -80.86169 27197 ft 432 kts 258°
2026-05-05 02:53 25.73997 -80.89387 27761 ft 439 kts 258°
2026-05-05 02:53 25.73107 -80.92662 28285 ft 446 kts 258°
2026-05-05 02:53 25.72208 -80.95957 28987 ft 448 kts 259°
2026-05-05 02:54 25.71293 -80.99306 29780 ft 449 kts 259°
2026-05-05 02:54 25.70395 -81.02583 30691 ft 446 kts 259°
2026-05-05 02:54 25.69487 -81.05894 31582 ft 443 kts 259°
2026-05-05 02:54 25.68595 -81.09145 32514 ft 438 kts 259°
2026-05-05 02:55 25.67722 -81.12318 33396 ft 433 kts 260°
2026-05-05 02:55 25.66852 -81.15490 33956 ft 434 kts 259°
2026-05-05 02:55 25.65936 -81.18733 33990 ft 434 kts 257°
2026-05-05 02:56 25.63146 -81.24638 33992 ft 441 kts 242°
2026-05-05 02:56 25.61141 -81.27315 33995 ft 455 kts 235°
2026-05-05 02:56 25.58807 -81.29766 33995 ft 466 kts 231°
2026-05-05 02:57 25.54012 -81.34527 33990 ft 463 kts 231°
2026-05-05 02:57 25.49183 -81.39314 33991 ft 463 kts 231°
2026-05-05 02:58 25.44385 -81.44061 33987 ft 464 kts 231°
2026-05-05 02:58 25.39550 -81.48844 33990 ft 464 kts 231°
2026-05-05 02:59 25.34726 -81.53610 33988 ft 465 kts 231°
2026-05-05 02:59 25.29888 -81.58383 33985 ft 466 kts 231°
2026-05-05 03:00 25.25023 -81.63179 33986 ft 468 kts 231°
2026-05-05 03:00 25.20167 -81.67959 33998 ft 466 kts 230°
2026-05-05 03:01 25.14648 -81.72004 34007 ft 491 kts 213°
2026-05-05 03:01 25.08179 -81.74557 34004 ft 498 kts 206°
2026-05-05 03:02 25.01535 -81.76941 33997 ft 499 kts 206°
2026-05-05 03:02 24.94900 -81.79321 34009 ft 499 kts 206°
2026-05-05 03:03 24.88344 -81.81671 34002 ft 496 kts 206°
2026-05-05 03:03 24.81716 -81.84049 34003 ft 498 kts 207°
2026-05-05 03:04 24.75105 -81.86417 34006 ft 499 kts 206°
2026-05-05 03:04 24.68499 -81.88782 34006 ft 497 kts 206°
2026-05-05 03:05 24.61855 -81.91158 34007 ft 498 kts 206°
2026-05-05 03:05 24.55300 -81.93636 34005 ft 491 kts 213°
2026-05-05 03:05 24.52331 -81.95369 34004 ft 479 kts 221°
2026-05-05 03:06 24.49648 -81.97568 34010 ft 474 kts 230°
2026-05-05 03:06 24.45480 -82.02949 33995 ft 452 kts 246°
2026-05-05 03:07 24.42613 -82.08953 33989 ft 444 kts 251°
2026-05-05 03:07 24.39876 -82.15045 33985 ft 445 kts 252°
2026-05-05 03:08 24.37174 -82.21126 33985 ft 446 kts 252°
2026-05-05 03:08 24.34464 -82.27259 33984 ft 445 kts 252°
2026-05-05 03:09 24.31765 -82.33376 33985 ft 443 kts 251°
2026-05-05 03:09 24.29081 -82.39464 33984 ft 445 kts 252°
2026-05-05 03:10 24.26394 -82.45554 33987 ft 447 kts 252°
2026-05-05 03:10 24.23688 -82.51681 33980 ft 446 kts 252°
2026-05-05 03:11 24.20987 -82.57791 33982 ft 448 kts 252°
2026-05-05 03:11 24.18256 -82.63959 33984 ft 449 kts 251°
2026-05-05 03:12 24.15537 -82.70091 33995 ft 448 kts 251°
2026-05-05 03:12 24.12814 -82.76226 33995 ft 448 kts 251°
2026-05-05 03:13 24.10089 -82.82362 33995 ft 451 kts 251°
2026-05-05 03:13 24.07350 -82.88512 33993 ft 447 kts 251°
2026-05-05 03:14 24.04614 -82.94655 33994 ft 450 kts 251°
2026-05-05 03:14 24.01863 -83.00823 33993 ft 451 kts 251°
2026-05-05 03:15 23.98775 -83.06770 33991 ft 457 kts 242°
2026-05-05 03:15 23.94962 -83.12416 33990 ft 462 kts 241°
2026-05-05 03:16 23.91142 -83.18034 33990 ft 462 kts 241°
2026-05-05 03:16 23.87294 -83.23687 33980 ft 462 kts 241°
2026-05-05 03:17 23.83425 -83.29365 33975 ft 462 kts 241°
2026-05-05 03:17 23.79585 -83.34994 33980 ft 463 kts 241°
2026-05-05 03:18 23.75750 -83.40610 33976 ft 462 kts 241°
2026-05-05 03:18 23.71893 -83.46251 33976 ft 463 kts 241°
2026-05-05 03:19 23.66092 -83.54725 33977 ft 465 kts 240°
2026-05-05 03:19 23.62249 -83.60328 33976 ft 461 kts 240°
2026-05-05 03:20 23.58378 -83.65962 33981 ft 465 kts 239°
2026-05-05 03:20 23.54415 -83.71567 33987 ft 465 kts 240°
2026-05-05 03:21 23.50561 -83.77173 33986 ft 464 kts 240°
2026-05-05 03:21 23.46643 -83.82867 33988 ft 466 kts 239°
2026-05-05 03:22 23.42782 -83.88471 33987 ft 463 kts 240°
2026-05-05 03:22 23.38895 -83.94110 33989 ft 465 kts 240°
2026-05-05 03:23 23.35017 -83.99728 33987 ft 465 kts 239°
2026-05-05 03:23 23.31114 -84.05379 33989 ft 467 kts 239°
2026-05-05 03:24 23.27224 -84.11002 33988 ft 463 kts 239°
2026-05-05 03:24 23.23328 -84.16630 33989 ft 466 kts 239°
2026-05-05 03:25 23.19423 -84.22264 33989 ft 467 kts 239°
2026-05-05 03:25 23.15491 -84.27932 33987 ft 466 kts 239°
2026-05-05 03:26 23.11597 -84.33540 33987 ft 467 kts 239°
2026-05-05 03:26 23.07668 -84.39191 33988 ft 466 kts 239°
2026-05-05 03:27 23.03753 -84.44820 33985 ft 466 kts 239°
2026-05-05 03:27 22.99843 -84.50436 33988 ft 466 kts 239°
2026-05-05 03:28 22.95933 -84.56054 33985 ft 466 kts 239°
2026-05-05 03:28 22.91980 -84.61699 33985 ft 468 kts 239°
2026-05-05 03:29 22.88071 -84.67275 33987 ft 467 kts 239°
2026-05-05 03:29 22.84108 -84.72924 33985 ft 467 kts 239°
2026-05-05 03:30 22.80155 -84.78555 33984 ft 468 kts 238°
2026-05-05 03:30 22.76205 -84.84176 33983 ft 468 kts 238°
2026-05-05 03:31 22.72259 -84.89784 33978 ft 468 kts 239°
2026-05-05 03:31 22.68298 -84.95409 33968 ft 472 kts 238°
2026-05-05 03:32 22.64325 -85.01044 33964 ft 470 kts 239°
2026-05-05 03:32 22.60319 -85.06721 33964 ft 470 kts 239°
2026-05-05 03:33 22.56397 -85.12354 33968 ft 470 kts 239°
2026-05-05 03:33 22.52450 -85.18029 33965 ft 469 kts 239°
2026-05-05 03:34 22.48505 -85.23692 33963 ft 471 kts 239°
2026-05-05 03:34 22.44567 -85.29336 33965 ft 471 kts 239°
2026-05-05 03:35 22.40604 -85.35011 33963 ft 473 kts 239°
2026-05-05 03:35 22.38637 -85.37821 33596 ft 466 kts 239°
2026-05-05 03:35 22.36663 -85.40645 32793 ft 467 kts 239°
2026-05-05 03:36 22.34699 -85.43452 32026 ft 468 kts 239°
2026-05-05 03:36 22.32746 -85.46242 31251 ft 469 kts 239°
2026-05-05 03:36 22.30764 -85.49072 30514 ft 469 kts 239°
2026-05-05 03:36 22.28811 -85.51855 30081 ft 462 kts 239°
2026-05-05 03:37 22.26893 -85.54589 29641 ft 462 kts 239°
2026-05-05 03:37 22.24919 -85.57409 29140 ft 474 kts 239°
2026-05-05 03:37 22.22919 -85.60262 28610 ft 473 kts 239°
2026-05-05 03:37 22.20945 -85.63081 28085 ft 469 kts 238°
2026-05-05 03:38 22.18979 -85.65889 27557 ft 464 kts 238°
2026-05-05 03:38 22.17055 -85.68636 27044 ft 460 kts 238°
2026-05-05 03:38 22.15143 -85.71363 26525 ft 456 kts 238°
2026-05-05 03:38 22.13243 -85.74075 25987 ft 452 kts 238°
2026-05-05 03:39 22.11331 -85.76800 25444 ft 449 kts 238°
2026-05-05 03:39 22.09479 -85.79439 24915 ft 445 kts 238°
2026-05-05 03:39 22.07615 -85.82095 24373 ft 442 kts 238°
2026-05-05 03:39 22.05773 -85.84718 23838 ft 438 kts 238°
2026-05-05 03:40 22.03918 -85.87358 23293 ft 435 kts 238°
2026-05-05 03:40 22.02109 -85.89931 22763 ft 432 kts 238°
2026-05-05 03:40 22.00292 -85.92514 22250 ft 428 kts 238°
2026-05-05 03:40 21.98514 -85.95039 22096 ft 416 kts 238°
2026-05-05 03:41 21.96763 -85.97462 21985 ft 404 kts 233°
2026-05-05 03:41 21.94794 -85.99547 21864 ft 398 kts 227°
2026-05-05 03:41 21.92705 -86.01537 21745 ft 402 kts 226°
2026-05-05 03:41 21.90576 -86.03552 21610 ft 405 kts 226°
2026-05-05 03:42 21.88465 -86.05544 21455 ft 402 kts 226°
2026-05-05 03:42 21.86364 -86.07524 21317 ft 400 kts 226°
2026-05-05 03:42 21.84281 -86.09486 21180 ft 398 kts 226°
2026-05-05 03:42 21.82190 -86.11456 21048 ft 398 kts 226°
2026-05-05 03:43 21.80091 -86.13432 20913 ft 397 kts 226°
2026-05-05 03:43 21.78036 -86.15364 20778 ft 395 kts 226°
2026-05-05 03:43 21.75943 -86.17332 20642 ft 394 kts 226°
2026-05-05 03:43 21.73897 -86.19254 20509 ft 392 kts 226°
2026-05-05 03:44 21.71830 -86.21195 20374 ft 390 kts 226°
2026-05-05 03:44 21.69811 -86.23090 20236 ft 381 kts 226°
2026-05-05 03:44 21.67853 -86.24925 20111 ft 369 kts 226°
2026-05-05 03:44 21.65926 -86.26731 19991 ft 357 kts 226°
2026-05-05 03:45 21.64073 -86.28469 19779 ft 350 kts 226°
2026-05-05 03:45 21.62265 -86.30170 19331 ft 350 kts 226°
2026-05-05 03:45 21.60410 -86.31913 18877 ft 350 kts 226°
2026-05-05 03:45 21.58587 -86.33624 18448 ft 348 kts 226°
2026-05-05 03:46 21.56766 -86.35332 18051 ft 346 kts 226°
2026-05-05 03:46 21.54964 -86.37020 17660 ft 344 kts 225°
2026-05-05 03:46 21.53154 -86.38699 17264 ft 342 kts 222°
2026-05-05 03:46 21.51216 -86.40192 16883 ft 342 kts 218°
2026-05-05 03:47 21.49256 -86.41592 16488 ft 341 kts 218°
2026-05-05 03:47 21.47261 -86.43009 16088 ft 339 kts 218°
2026-05-05 03:47 21.45308 -86.44401 15701 ft 337 kts 218°
2026-05-05 03:47 21.43381 -86.45777 15322 ft 334 kts 218°
2026-05-05 03:48 21.41443 -86.47162 14934 ft 333 kts 218°
2026-05-05 03:48 21.39520 -86.48536 14546 ft 331 kts 218°
2026-05-05 03:48 21.37596 -86.49912 14163 ft 329 kts 218°
2026-05-05 03:48 21.35697 -86.51268 13785 ft 327 kts 218°
2026-05-05 03:49 21.33816 -86.52612 13404 ft 325 kts 217°
2026-05-05 03:49 21.31937 -86.53957 13019 ft 323 kts 217°
2026-05-05 03:49 21.30054 -86.55303 12631 ft 321 kts 217°
2026-05-05 03:49 21.28196 -86.56632 12250 ft 320 kts 217°
2026-05-05 03:50 21.26363 -86.57941 11871 ft 318 kts 216°
2026-05-05 03:50 21.24514 -86.59262 11486 ft 317 kts 216°
2026-05-05 03:50 21.22666 -86.60581 11115 ft 315 kts 216°
2026-05-05 03:50 21.20861 -86.61870 10752 ft 314 kts 216°
2026-05-05 03:51 21.19037 -86.63171 10391 ft 312 kts 216°
2026-05-05 03:51 21.17226 -86.64464 10034 ft 310 kts 216°
2026-05-05 03:51 21.15424 -86.65749 9680 ft 308 kts 215°
2026-05-05 03:51 21.13634 -86.67025 9325 ft 307 kts 215°
2026-05-05 03:52 21.11852 -86.68295 8962 ft 305 kts 214°
2026-05-05 03:52 21.10098 -86.69582 8600 ft 303 kts 221°
2026-05-05 03:52 21.08803 -86.71323 8228 ft 298 kts 246°
2026-05-05 03:52 21.08318 -86.73441 7976 ft 289 kts 270°
2026-05-05 03:53 21.08637 -86.75538 7607 ft 287 kts 290°
2026-05-05 03:53 21.09460 -86.77480 7208 ft 288 kts 298°
2026-05-05 03:53 21.10477 -86.79329 6839 ft 288 kts 302°
2026-05-05 03:53 21.11575 -86.81145 6474 ft 289 kts 304°
2026-05-05 03:54 21.12685 -86.82932 6123 ft 288 kts 304°
2026-05-05 03:54 21.13793 -86.84704 5770 ft 288 kts 304°
2026-05-05 03:54 21.14924 -86.86512 5433 ft 287 kts 304°
2026-05-05 03:54 21.16035 -86.88290 5109 ft 286 kts 304°
2026-05-05 03:55 21.17132 -86.90045 4794 ft 285 kts 304°
2026-05-05 03:55 21.18244 -86.91827 4514 ft 283 kts 304°
2026-05-05 03:55 21.19335 -86.93574 4225 ft 281 kts 304°
2026-05-05 03:55 21.20410 -86.95298 3941 ft 278 kts 304°
2026-05-05 03:56 21.21484 -86.97021 3679 ft 276 kts 304°
2026-05-05 03:56 21.22545 -86.98722 3411 ft 274 kts 304°
2026-05-05 03:56 21.23605 -87.00423 3127 ft 273 kts 303°
2026-05-05 03:56 21.24643 -87.02089 2937 ft 262 kts 303°
2026-05-05 03:57 21.25648 -87.03700 2965 ft 255 kts 303°
2026-05-05 03:57 21.26374 -87.05423 2958 ft 261 kts 277°
2026-05-05 03:57 21.26250 -87.07365 2992 ft 263 kts 249°
2026-05-05 03:57 21.25250 -87.08998 2957 ft 258 kts 219°
2026-05-05 03:58 21.23712 -87.09854 2955 ft 243 kts 190°
2026-05-05 03:58 21.22052 -87.09837 2952 ft 231 kts 163°
2026-05-05 03:58 21.20619 -87.09096 2967 ft 228 kts 146°
2026-05-05 03:58 21.19288 -87.08157 2964 ft 222 kts 146°
2026-05-05 03:59 21.18036 -87.07263 2964 ft 212 kts 140°
2026-05-05 03:59 21.16983 -87.06175 2979 ft 205 kts 130°
2026-05-05 03:59 21.16137 -87.05007 2964 ft 193 kts 125°
2026-05-05 03:59 21.15380 -87.03840 2964 ft 187 kts 123°
2026-05-05 04:00 21.14660 -87.02698 2967 ft 184 kts 123°
2026-05-05 04:00 21.13939 -87.01554 2898 ft 183 kts 123°
2026-05-05 04:00 21.13235 -87.00435 2668 ft 182 kts 123°
2026-05-05 04:00 21.12537 -86.99327 2441 ft 174 kts 123°
2026-05-05 04:01 21.11863 -86.98261 2225 ft 169 kts 123°
2026-05-05 04:01 21.11214 -86.97230 2012 ft 166 kts 123°
2026-05-05 04:01 21.10573 -86.96214 1792 ft 157 kts 123°
2026-05-05 04:01 21.09990 -86.95291 1606 ft 143 kts 123°
2026-05-05 04:02 21.09440 -86.94418 1426 ft 137 kts 123°
2026-05-05 04:02 21.08915 -86.93584 1252 ft 136 kts 123°
2026-05-05 04:02 21.08383 -86.92740 1077 ft 136 kts 123°
2026-05-05 04:02 21.07847 -86.91887 893 ft 137 kts 123°
2026-05-05 04:03 21.07304 -86.91039 690 ft 136 kts 124°
2026-05-05 04:03 21.06763 -86.90198 482 ft 136 kts 123°
2026-05-05 04:03 21.06240 -86.89363 345 ft 136 kts 124°
2026-05-05 04:03 21.05705 -86.88516 157 ft 138 kts 123°
2026-05-05 04:04 21.05168 -86.87656 55 ft 130 kts 124°
2026-05-05 04:04 21.04704 -86.86912 47 ft 103 kts 123°
2026-05-05 04:04 21.04391 -86.86414 48 ft 53 kts 125°
2026-05-05 04:04 21.04236 -86.86164 50 ft 33 kts 123°
2026-05-05 04:05 21.04136 -86.86006 52 ft 22 kts 124°
2026-05-05 04:05 21.04080 -86.85944 53 ft 8 kts 149°
2026-05-05 04:05 21.04030 -86.85925 53 ft 6 kts 167°
2026-05-05 04:05 21.04024 -86.85925 53 ft 1 kts 171°
2026-05-05 04:06 21.04002 -86.85921 53 ft 5 kts 169°
2026-05-05 04:06 21.03954 -86.85925 54 ft 8 kts 206°
2026-05-05 04:06 21.03928 -86.85971 53 ft 7 kts 272°
2026-05-05 04:06 21.03946 -86.86025 53 ft 8 kts 298°
2026-05-05 04:07 21.03978 -86.86077 52 ft 8 kts 305°
2026-05-05 04:07 21.04013 -86.86131 52 ft 9 kts 303°
2026-05-05 04:07 21.04036 -86.86194 51 ft 9 kts 266°
2026-05-05 04:07 21.03997 -86.86247 51 ft 9 kts 218°
2026-05-05 04:08 21.03937 -86.86290 50 ft 12 kts 213°
2026-05-05 04:08 21.03851 -86.86351 49 ft 15 kts 213°
2026-05-05 04:08 21.03752 -86.86420 49 ft 18 kts 214°
2026-05-05 04:08 21.03642 -86.86500 48 ft 19 kts 213°
2026-05-05 04:09 21.03532 -86.86578 47 ft 18 kts 214°
2026-05-05 04:09 21.03428 -86.86652 45 ft 17 kts 213°
2026-05-05 04:09 21.03326 -86.86724 43 ft 14 kts 213°
2026-05-05 04:09 21.03300 -86.86809 43 ft 13 kts 290°
2026-05-05 04:10 21.03349 -86.86897 42 ft 13 kts 303°
2026-05-05 04:10 21.03403 -86.86981 40 ft 13 kts 304°
2026-05-05 04:10 21.03456 -86.87067 39 ft 14 kts 303°
2026-05-05 04:10 21.03511 -86.87155 38 ft 15 kts 303°
2026-05-05 04:11 21.03579 -86.87264 36 ft 19 kts 303°
2026-05-05 04:11 21.03665 -86.87401 35 ft 23 kts 303°
2026-05-05 04:11 21.03757 -86.87548 34 ft 23 kts 303°
2026-05-05 04:11 21.03845 -86.87688 33 ft 21 kts 304°
2026-05-05 04:12 21.03927 -86.87820 33 ft 19 kts 303°
2026-05-05 04:12 21.04000 -86.87936 34 ft 17 kts 303°
2026-05-05 04:12 21.04058 -86.88004 35 ft 7 kts 349°
2026-05-05 04:12 21.04103 -86.87992 35 ft 6 kts 26°
2026-05-05 04:13 21.04138 -86.87976 36 ft 4 kts 356°
2026-05-05 04:13 21.04161 -86.87992 36 ft 3 kts 302°
2026-05-05 04:13 21.04170 -86.88007 36 ft 1 kts 303°
2026-05-05 04:13 21.04171 -86.88009 36 ft 0 kts 302°